Time,TemperatureF,DewpointF,PressureIn,WindDirection,WindDirectionDegrees,WindSpeedMPH,WindSpeedGustMPH,Humidity,HourlyPrecipIn,Conditions,Clouds,dailyrainin,SoftwareType,DateUTC
2013-06-02 00:01:00,69.0,37.0,29.69,NNE,13,0.0,2.0,31,0.00,,,0.00,,2013-06-02 06:01:00,
2013-06-02 00:12:00,69.0,37.0,29.69,NNE,13,0.0,2.0,31,0.00,,,0.00,,2013-06-02 06:12:00,
2013-06-02 00:21:00,69.0,38.0,29.70,NNE,13,0.0,1.0,32,0.00,,,0.00,,2013-06-02 06:21:00,
2013-06-02 00:32:00,69.0,38.0,29.70,NNE,13,0.0,0.0,32,0.00,,,0.00,,2013-06-02 06:32:00,
2013-06-02 00:42:00,69.0,38.0,29.70,NNE,13,0.0,0.0,32,0.00,,,0.00,,2013-06-02 06:42:00,
2013-06-02 00:52:00,69.0,37.0,29.71,NNE,13,0.0,0.0,31,0.00,,,0.00,,2013-06-02 06:52:00,
2013-06-02 01:01:00,70.0,39.0,29.71,West,260,0.0,1.0,32,0.00,,,0.00,,2013-06-02 07:01:00,
2013-06-02 01:11:00,70.0,39.0,29.71,West,260,0.0,1.0,32,0.00,,,0.00,,2013-06-02 07:11:00,
2013-06-02 01:21:00,70.0,40.0,29.71,West,260,0.0,1.0,34,0.00,,,0.00,,2013-06-02 07:21:00,
2013-06-02 01:32:00,72.0,41.0,29.71,WSW,239,0.0,1.0,33,0.00,,,0.00,,2013-06-02 07:32:00,
2013-06-02 01:42:00,72.0,41.0,29.71,WSW,239,0.0,1.0,33,0.00,,,0.00,,2013-06-02 07:42:00,
2013-06-02 01:52:00,73.0,41.0,29.71,ESE,103,0.0,3.0,32,0.00,,,0.00,,2013-06-02 07:52:00,
2013-06-02 02:01:00,73.0,41.0,29.70,WSW,253,1.0,2.0,32,0.00,,,0.00,,2013-06-02 08:01:00,
2013-06-02 02:11:00,73.0,41.0,29.70,WSW,253,1.0,2.0,32,0.00,,,0.00,,2013-06-02 08:11:00,
2013-06-02 02:21:00,74.0,41.0,29.70,SW,236,0.0,1.0,31,0.00,,,0.00,,2013-06-02 08:21:00,
2013-06-02 02:32:00,73.0,43.0,29.71,SW,232,0.0,1.0,34,0.00,,,0.00,,2013-06-02 08:32:00,
2013-06-02 02:41:00,73.0,43.0,29.71,SW,232,0.0,1.0,34,0.00,,,0.00,,2013-06-02 08:41:00,
2013-06-02 02:52:00,71.0,42.0,29.70,East,91,0.0,0.0,35,0.00,,,0.00,,2013-06-02 08:52:00,
2013-06-02 03:01:00,70.0,42.0,29.70,East,91,0.0,1.0,36,0.00,,,0.00,,2013-06-02 09:01:00,
2013-06-02 03:11:00,70.0,42.0,29.70,East,91,0.0,1.0,36,0.00,,,0.00,,2013-06-02 09:11:00,
2013-06-02 03:21:00,69.0,42.0,29.70,ENE,61,0.0,0.0,37,0.00,,,0.00,,2013-06-02 09:21:00,
2013-06-02 03:33:00,68.0,41.0,29.70,ENE,59,0.0,0.0,38,0.00,,,0.00,,2013-06-02 09:33:00,
2013-06-02 03:42:00,68.0,41.0,29.70,ENE,59,0.0,0.0,38,0.00,,,0.00,,2013-06-02 09:42:00,
2013-06-02 03:53:00,69.0,42.0,29.71,NNE,29,0.0,1.0,38,0.00,,,0.00,,2013-06-02 09:53:00,
2013-06-02 04:02:00,68.0,42.0,29.71,NNE,29,0.0,0.0,39,0.00,,,0.00,,2013-06-02 10:02:00,
2013-06-02 04:12:00,68.0,42.0,29.71,NNE,29,0.0,0.0,39,0.00,,,0.00,,2013-06-02 10:12:00,
2013-06-02 04:22:00,68.0,43.0,29.71,NNE,28,0.0,0.0,41,0.00,,,0.00,,2013-06-02 10:22:00,
2013-06-02 04:32:00,67.0,43.0,29.71,NNE,29,0.0,0.0,42,0.00,,,0.00,,2013-06-02 10:32:00,
2013-06-02 04:42:00,67.0,43.0,29.71,NNE,29,0.0,0.0,42,0.00,,,0.00,,2013-06-02 10:42:00,
2013-06-02 04:52:00,67.0,44.0,29.72,SW,221,0.0,1.0,43,0.00,,,0.00,,2013-06-02 10:52:00,
2013-06-02 05:02:00,67.0,44.0,29.72,SW,221,0.0,0.0,44,0.00,,,0.00,,2013-06-02 11:02:00,
2013-06-02 05:12:00,67.0,44.0,29.72,SW,221,0.0,0.0,44,0.00,,,0.00,,2013-06-02 11:12:00,
2013-06-02 05:21:00,67.0,44.0,29.72,SW,214,0.0,1.0,44,0.00,,,0.00,,2013-06-02 11:21:00,
2013-06-02 05:32:00,67.0,45.0,29.72,SSE,154,0.0,0.0,45,0.00,,,0.00,,2013-06-02 11:32:00,
2013-06-02 05:42:00,67.0,45.0,29.72,SSE,154,0.0,0.0,45,0.00,,,0.00,,2013-06-02 11:42:00,
2013-06-02 05:52:00,67.0,46.0,29.73,SW,229,0.0,0.0,46,0.00,,,0.00,,2013-06-02 11:52:00,
2013-06-02 06:01:00,66.0,45.0,29.73,SW,229,0.0,1.0,47,0.00,,,0.00,,2013-06-02 12:01:00,
2013-06-02 06:11:00,66.0,45.0,29.73,SW,229,0.0,1.0,47,0.00,,,0.00,,2013-06-02 12:11:00,
2013-06-02 06:21:00,66.0,46.0,29.74,SW,229,0.0,0.0,48,0.00,,,0.00,,2013-06-02 12:21:00,
2013-06-02 06:32:00,66.0,46.0,29.75,SW,229,0.0,1.0,48,0.00,,,0.00,,2013-06-02 12:32:00,
2013-06-02 06:42:00,66.0,46.0,29.75,SW,229,0.0,1.0,48,0.00,,,0.00,,2013-06-02 12:42:00,
2013-06-02 06:52:00,65.0,45.0,29.75,SW,229,0.0,0.0,49,0.00,,,0.00,,2013-06-02 12:52:00,
2013-06-02 07:01:00,65.0,46.0,29.76,SW,229,0.0,0.0,51,0.00,,,0.00,,2013-06-02 13:01:00,
2013-06-02 07:11:00,65.0,46.0,29.76,SW,229,0.0,0.0,51,0.00,,,0.00,,2013-06-02 13:11:00,
2013-06-02 07:21:00,66.0,47.0,29.76,SW,229,0.0,0.0,51,0.00,,,0.00,,2013-06-02 13:21:00,
2013-06-02 07:32:00,66.0,49.0,29.76,SW,229,0.0,0.0,54,0.00,,,0.00,,2013-06-02 13:32:00,
2013-06-02 07:42:00,66.0,49.0,29.76,SW,229,0.0,0.0,54,0.00,,,0.00,,2013-06-02 13:42:00,
2013-06-02 07:52:00,67.0,51.0,29.76,SW,229,0.0,0.0,56,0.00,,,0.00,,2013-06-02 13:52:00,
2013-06-02 08:02:00,68.0,50.0,29.76,WSW,239,0.0,0.0,53,0.00,,,0.00,,2013-06-02 14:02:00,
2013-06-02 08:11:00,68.0,50.0,29.76,WSW,239,0.0,0.0,53,0.00,,,0.00,,2013-06-02 14:11:00,
2013-06-02 08:21:00,69.0,53.0,29.76,SW,232,0.0,3.0,57,0.00,,,0.00,,2013-06-02 14:21:00,
2013-06-02 08:32:00,74.0,51.0,29.76,ESE,121,0.0,3.0,45,0.00,,,0.00,,2013-06-02 14:32:00,
2013-06-02 08:42:00,74.0,51.0,29.76,ESE,121,0.0,3.0,45,0.00,,,0.00,,2013-06-02 14:42:00,
2013-06-02 08:52:00,77.0,51.0,29.76,ESE,113,1.0,7.0,40,0.00,,,0.00,,2013-06-02 14:52:00,
2013-06-02 09:01:00,79.0,51.0,29.76,SE,127,1.0,7.0,38,0.00,,,0.00,,2013-06-02 15:01:00,
2013-06-02 09:11:00,79.0,51.0,29.76,SE,127,1.0,7.0,38,0.00,,,0.00,,2013-06-02 15:11:00,
2013-06-02 09:21:00,80.0,51.0,29.76,SSE,149,2.0,4.0,37,0.00,,,0.00,,2013-06-02 15:21:00,
2013-06-02 09:33:00,81.0,52.0,29.75,ESE,108,1.0,7.0,37,0.00,,,0.00,,2013-06-02 15:33:00,
2013-06-02 09:43:00,81.0,52.0,29.75,ESE,108,1.0,7.0,37,0.00,,,0.00,,2013-06-02 15:43:00,
2013-06-02 09:53:00,82.0,51.0,29.75,ESE,119,3.0,7.0,34,0.00,,,0.00,,2013-06-02 15:53:00,
2013-06-02 10:03:00,83.0,52.0,29.75,East,90,2.0,5.0,35,0.00,,,0.00,,2013-06-02 16:03:00,
2013-06-02 10:13:00,83.0,52.0,29.75,East,90,2.0,5.0,35,0.00,,,0.00,,2013-06-02 16:13:00,
2013-06-02 10:23:00,85.0,53.0,29.75,SE,130,3.0,8.0,33,0.00,,,0.00,,2013-06-02 16:23:00,
2013-06-02 10:33:00,85.0,52.0,29.75,SE,136,3.0,9.0,32,0.00,,,0.00,,2013-06-02 16:33:00,
2013-06-02 10:42:00,85.0,52.0,29.75,SE,136,3.0,9.0,32,0.00,,,0.00,,2013-06-02 16:42:00,
2013-06-02 10:52:00,86.0,52.0,29.75,SSW,211,3.0,9.0,31,0.00,,,0.00,,2013-06-02 16:52:00,
2013-06-02 11:02:00,87.0,52.0,29.75,SE,134,5.0,10.0,30,0.00,,,0.00,,2013-06-02 17:02:00,
2013-06-02 11:12:00,87.0,52.0,29.75,SE,134,5.0,10.0,30,0.00,,,0.00,,2013-06-02 17:12:00,
2013-06-02 11:22:00,87.0,51.0,29.75,SE,134,3.0,11.0,29,0.00,,,0.00,,2013-06-02 17:22:00,
2013-06-02 11:32:00,87.0,52.0,29.74,East,101,2.0,7.0,30,0.00,,,0.00,,2013-06-02 17:32:00,
2013-06-02 11:42:00,89.0,53.0,29.73,East,89,3.0,10.0,29,0.00,,,0.00,,2013-06-02 17:42:00,
2013-06-02 11:52:00,89.0,53.0,29.73,East,89,3.0,10.0,29,0.00,,,0.00,,2013-06-02 17:52:00,
2013-06-02 12:02:00,89.0,52.0,29.73,East,81,3.0,8.0,28,0.00,,,0.00,,2013-06-02 18:02:00,
2013-06-02 12:11:00,89.0,52.0,29.73,East,81,3.0,8.0,28,0.00,,,0.00,,2013-06-02 18:11:00,
2013-06-02 12:21:00,90.0,53.0,29.72,South,184,0.0,6.0,29,0.00,,,0.00,,2013-06-02 18:21:00,
2013-06-02 12:32:00,90.0,53.0,29.72,East,93,2.0,9.0,29,0.00,,,0.00,,2013-06-02 18:32:00,
2013-06-02 12:42:00,90.0,51.0,29.71,SE,130,2.0,8.0,27,0.00,,,0.00,,2013-06-02 18:42:00,
2013-06-02 12:52:00,90.0,51.0,29.71,SE,130,2.0,8.0,27,0.00,,,0.00,,2013-06-02 18:52:00,
2013-06-02 13:01:00,92.0,53.0,29.70,SW,228,3.0,10.0,27,0.00,,,0.00,,2013-06-02 19:01:00,
2013-06-02 13:11:00,92.0,53.0,29.70,SW,228,3.0,10.0,27,0.00,,,0.00,,2013-06-02 19:11:00,
2013-06-02 13:21:00,92.0,53.0,29.69,SE,132,2.0,10.0,27,0.00,,,0.00,,2013-06-02 19:21:00,
2013-06-02 13:32:00,93.0,52.0,29.68,South,171,2.0,7.0,25,0.00,,,0.00,,2013-06-02 19:32:00,
2013-06-02 13:42:00,93.0,52.0,29.68,South,171,2.0,7.0,25,0.00,,,0.00,,2013-06-02 19:42:00,
2013-06-02 13:52:00,94.0,52.0,29.68,SSW,208,2.0,9.0,24,0.00,,,0.00,,2013-06-02 19:52:00,
2013-06-02 14:02:00,95.0,51.0,29.67,South,179,3.0,10.0,23,0.00,,,0.00,,2013-06-02 20:02:00,
2013-06-02 14:11:00,95.0,51.0,29.67,South,179,3.0,10.0,23,0.00,,,0.00,,2013-06-02 20:11:00,
2013-06-02 14:22:00,95.0,50.0,29.66,ESE,120,3.0,7.0,22,0.00,,,0.00,,2013-06-02 20:22:00,
2013-06-02 14:32:00,95.0,51.0,29.65,SSE,155,2.0,6.0,23,0.00,,,0.00,,2013-06-02 20:32:00,
2013-06-02 14:42:00,95.0,51.0,29.65,SSE,155,2.0,6.0,23,0.00,,,0.00,,2013-06-02 20:42:00,
2013-06-02 14:52:00,95.0,49.0,29.65,SW,217,3.0,10.0,21,0.00,,,0.00,,2013-06-02 20:52:00,
2013-06-02 15:01:00,96.0,52.0,29.63,SW,232,2.0,8.0,23,0.00,,,0.00,,2013-06-02 21:01:00,
2013-06-02 15:12:00,96.0,52.0,29.63,SW,232,2.0,8.0,23,0.00,,,0.00,,2013-06-02 21:12:00,
2013-06-02 15:21:00,96.0,51.0,29.62,SE,134,1.0,7.0,22,0.00,,,0.00,,2013-06-02 21:21:00,
2013-06-02 15:33:00,97.0,49.0,29.61,South,170,2.0,6.0,20,0.00,,,0.00,,2013-06-02 21:33:00,
2013-06-02 15:42:00,97.0,49.0,29.61,South,170,2.0,6.0,20,0.00,,,0.00,,2013-06-02 21:42:00,
2013-06-02 15:53:00,97.0,51.0,29.60,SW,222,3.0,8.0,21,0.00,,,0.00,,2013-06-02 21:53:00,
2013-06-02 16:03:00,97.0,49.0,29.59,WSW,245,1.0,8.0,20,0.00,,,0.00,,2013-06-02 22:03:00,
2013-06-02 16:12:00,97.0,49.0,29.59,WSW,245,1.0,8.0,20,0.00,,,0.00,,2013-06-02 22:12:00,
2013-06-02 16:23:00,97.0,52.0,29.58,SSE,152,1.0,5.0,22,0.00,,,0.00,,2013-06-02 22:23:00,
2013-06-02 16:33:00,97.0,49.0,29.57,SSW,201,1.0,6.0,20,0.00,,,0.00,,2013-06-02 22:33:00,
2013-06-02 16:42:00,97.0,49.0,29.57,SSW,201,1.0,6.0,20,0.00,,,0.00,,2013-06-02 22:42:00,
2013-06-02 16:52:00,97.0,48.0,29.56,SSE,155,3.0,9.0,19,0.00,,,0.00,,2013-06-02 22:52:00,
2013-06-02 17:02:00,98.0,50.0,29.55,South,183,2.0,5.0,20,0.00,,,0.00,,2013-06-02 23:02:00,
2013-06-02 17:12:00,98.0,50.0,29.55,South,183,2.0,5.0,20,0.00,,,0.00,,2013-06-02 23:12:00,
2013-06-02 17:22:00,97.0,48.0,29.53,East,93,2.0,7.0,19,0.00,,,0.00,,2013-06-02 23:22:00,
2013-06-02 17:32:00,97.0,46.0,29.53,SSW,211,1.0,7.0,18,0.00,,,0.00,,2013-06-02 23:32:00,
2013-06-02 17:42:00,97.0,46.0,29.53,SSW,211,1.0,7.0,18,0.00,,,0.00,,2013-06-02 23:42:00,
2013-06-02 17:52:00,97.0,49.0,29.52,ESE,111,0.0,3.0,20,0.00,,,0.00,,2013-06-02 23:52:00,
2013-06-02 18:01:00,93.0,46.0,29.51,ESE,108,0.0,6.0,20,0.00,,,0.00,,2013-06-03 00:01:00,
2013-06-02 18:12:00,93.0,46.0,29.51,ESE,108,0.0,6.0,20,0.00,,,0.00,,2013-06-03 00:12:00,
2013-06-02 18:21:00,92.0,48.0,29.50,ESE,106,0.0,1.0,22,0.00,,,0.00,,2013-06-03 00:21:00,
2013-06-02 18:32:00,92.0,49.0,29.51,ESE,121,0.0,3.0,23,0.00,,,0.00,,2013-06-03 00:32:00,
2013-06-02 18:42:00,92.0,49.0,29.51,ESE,121,0.0,3.0,23,0.00,,,0.00,,2013-06-03 00:42:00,
2013-06-02 18:51:00,91.0,48.0,29.52,South,179,0.0,4.0,23,0.00,,,0.00,,2013-06-03 00:51:00,
2013-06-02 19:01:00,91.0,49.0,29.52,SSE,158,0.0,2.0,24,0.00,,,0.00,,2013-06-03 01:01:00,
2013-06-02 19:11:00,91.0,49.0,29.52,SSE,158,0.0,2.0,24,0.00,,,0.00,,2013-06-03 01:11:00,
2013-06-02 19:21:00,91.0,51.0,29.52,SSW,204,0.0,1.0,26,0.00,,,0.00,,2013-06-03 01:21:00,
2013-06-02 19:32:00,86.0,53.0,29.54,SSE,156,5.0,15.0,32,0.00,,,0.00,,2013-06-03 01:32:00,
2013-06-02 19:42:00,86.0,53.0,29.54,SSE,156,5.0,15.0,32,0.00,,,0.00,,2013-06-03 01:42:00,
2013-06-02 19:52:00,84.0,53.0,29.55,SE,139,4.0,15.0,34,0.00,,,0.00,,2013-06-03 01:52:00,
2013-06-02 20:02:00,83.0,51.0,29.56,SW,219,4.0,14.0,33,0.00,,,0.00,,2013-06-03 02:02:00,
2013-06-02 20:12:00,83.0,51.0,29.56,SW,219,4.0,14.0,33,0.00,,,0.00,,2013-06-03 02:12:00,
2013-06-02 20:22:00,80.0,55.0,29.57,South,186,2.0,8.0,42,0.00,,,0.00,,2013-06-03 02:22:00,
2013-06-02 20:32:00,79.0,53.0,29.55,ESE,118,2.0,8.0,40,0.00,,,0.00,,2013-06-03 02:32:00,
2013-06-02 20:42:00,79.0,53.0,29.55,ESE,118,2.0,8.0,40,0.00,,,0.00,,2013-06-03 02:42:00,
2013-06-02 20:52:00,79.0,51.0,29.56,ESE,111,2.0,7.0,38,0.00,,,0.00,,2013-06-03 02:52:00,
2013-06-02 21:02:00,79.0,50.0,29.57,ESE,113,1.0,4.0,37,0.00,,,0.00,,2013-06-03 03:02:00,
2013-06-02 21:12:00,79.0,50.0,29.57,ESE,113,1.0,4.0,37,0.00,,,0.00,,2013-06-03 03:12:00,
2013-06-02 21:22:00,78.0,50.0,29.59,ESE,117,3.0,6.0,37,0.00,,,0.00,,2013-06-03 03:22:00,
2013-06-02 21:33:00,78.0,50.0,29.60,ESE,113,2.0,6.0,37,0.00,,,0.00,,2013-06-03 03:33:00,
2013-06-02 21:43:00,78.0,50.0,29.60,ESE,113,2.0,6.0,37,0.00,,,0.00,,2013-06-03 03:43:00,
2013-06-02 21:53:00,78.0,50.0,29.62,SSW,200,1.0,7.0,37,0.00,,,0.00,,2013-06-03 03:53:00,
2013-06-02 22:03:00,77.0,49.0,29.62,SE,134,3.0,9.0,37,0.00,,,0.00,,2013-06-03 04:03:00,
2013-06-02 22:13:00,77.0,49.0,29.62,SE,134,3.0,9.0,37,0.00,,,0.00,,2013-06-03 04:13:00,
2013-06-02 22:23:00,77.0,49.0,29.64,SSE,155,1.0,8.0,37,0.00,,,0.00,,2013-06-03 04:23:00,
2013-06-02 22:33:00,76.0,48.0,29.64,SE,139,2.0,8.0,37,0.00,,,0.00,,2013-06-03 04:33:00,
2013-06-02 22:42:00,76.0,48.0,29.64,SE,139,2.0,8.0,37,0.00,,,0.00,,2013-06-03 04:42:00,
2013-06-02 22:53:00,76.0,49.0,29.65,SSE,148,3.0,10.0,39,0.00,,,0.00,,2013-06-03 04:53:00,
2013-06-02 23:02:00,75.0,49.0,29.65,NE,54,3.0,10.0,40,0.00,,,0.00,,2013-06-03 05:02:00,
2013-06-02 23:12:00,75.0,49.0,29.65,NE,54,3.0,10.0,40,0.00,,,0.00,,2013-06-03 05:12:00,
2013-06-02 23:22:00,74.0,49.0,29.67,SSE,153,3.0,9.0,42,0.00,,,0.00,,2013-06-03 05:22:00,
2013-06-02 23:32:00,74.0,50.0,29.68,SW,214,2.0,9.0,43,0.00,,,0.00,,2013-06-03 05:32:00,
2013-06-02 23:42:00,74.0,50.0,29.68,SW,214,2.0,9.0,43,0.00,,,0.00,,2013-06-03 05:42:00,
2013-06-02 23:52:00,74.0,49.0,29.68,SSE,158,3.0,12.0,42,0.00,,,0.00,,2013-06-03 05:52:00,